Year,Month,Day,Hour,Minute,Value (Times are PST for temperature in C)
2004,08,12,00,00,20.00
2004,08,12,00,01,19.90
2004,08,12,00,02,19.90
2004,08,12,00,03,19.80
2004,08,12,00,04,19.80
2004,08,12,00,05,19.70
2004,08,12,00,06,19.70
2004,08,12,00,07,19.70
2004,08,12,00,08,19.70
2004,08,12,00,09,19.70
2004,08,12,00,10,19.70
2004,08,12,00,11,19.70
2004,08,12,00,12,19.80
2004,08,12,00,13,19.80
2004,08,12,00,14,19.80
2004,08,12,00,15,19.80
2004,08,12,00,16,19.80
2004,08,12,00,17,19.80
2004,08,12,00,18,19.80
2004,08,12,00,19,19.80
2004,08,12,00,20,19.70
2004,08,12,00,21,19.70
2004,08,12,00,22,19.70
2004,08,12,00,23,19.70
2004,08,12,00,24,19.70
2004,08,12,00,25,19.60
2004,08,12,00,26,19.60
2004,08,12,00,27,19.50
2004,08,12,00,28,19.50
2004,08,12,00,29,19.50
2004,08,12,00,30,19.50
2004,08,12,00,31,19.50
2004,08,12,00,32,19.50
2004,08,12,00,33,19.50
2004,08,12,00,34,19.50
2004,08,12,00,35,19.40
2004,08,12,00,36,19.40
2004,08,12,00,37,19.40
2004,08,12,00,38,19.40
2004,08,12,00,39,19.40
2004,08,12,00,40,19.50
2004,08,12,00,41,19.40
2004,08,12,00,42,19.40
2004,08,12,00,43,19.50
2004,08,12,00,44,19.40
2004,08,12,00,45,19.40
2004,08,12,00,46,19.40
2004,08,12,00,47,19.30
2004,08,12,00,48,19.30
2004,08,12,00,49,19.30
2004,08,12,00,50,19.30
2004,08,12,00,51,19.30
2004,08,12,00,52,19.30
2004,08,12,00,53,19.20
2004,08,12,00,54,19.20
2004,08,12,00,55,19.20
2004,08,12,00,56,19.20
2004,08,12,00,57,19.20
2004,08,12,00,58,19.20
2004,08,12,00,59,19.20
2004,08,12,01,00,19.20
2004,08,12,01,01,19.20
2004,08,12,01,02,19.20
2004,08,12,01,03,19.10
2004,08,12,01,04,19.10
2004,08,12,01,05,19.10
2004,08,12,01,06,19.10
2004,08,12,01,07,19.10
2004,08,12,01,08,19.10
2004,08,12,01,09,19.10
2004,08,12,01,10,19.10
2004,08,12,01,11,19.10
2004,08,12,01,12,19.10
2004,08,12,01,13,19.10
2004,08,12,01,14,19.10
2004,08,12,01,15,19.10
2004,08,12,01,16,19.10
2004,08,12,01,17,19.10
2004,08,12,01,18,19.10
2004,08,12,01,19,19.10
2004,08,12,01,20,19.10
2004,08,12,01,21,19.10
2004,08,12,01,22,19.10
2004,08,12,01,23,19.10
2004,08,12,01,24,19.10
2004,08,12,01,25,19.10
2004,08,12,01,26,19.10
2004,08,12,01,27,19.10
2004,08,12,01,28,19.10
2004,08,12,01,29,19.10
2004,08,12,01,30,19.10
2004,08,12,01,31,19.10
2004,08,12,01,32,19.10
2004,08,12,01,33,19.10
2004,08,12,01,34,19.10
2004,08,12,01,35,19.10
2004,08,12,01,36,19.10
2004,08,12,01,37,19.10
2004,08,12,01,38,19.10
2004,08,12,01,39,19.10
2004,08,12,01,40,19.10
2004,08,12,01,41,19.10
2004,08,12,01,42,19.00
2004,08,12,01,43,18.90
2004,08,12,01,44,18.90
2004,08,12,01,45,18.90
2004,08,12,01,46,18.90
2004,08,12,01,47,18.80
2004,08,12,01,48,18.80
2004,08,12,01,49,18.70
2004,08,12,01,50,18.70
2004,08,12,01,51,18.70
2004,08,12,01,52,18.70
2004,08,12,01,53,18.80
2004,08,12,01,54,18.80
2004,08,12,01,55,18.70
2004,08,12,01,56,18.70
2004,08,12,01,57,18.60
2004,08,12,01,58,18.60
2004,08,12,01,59,18.50
2004,08,12,02,00,18.50
2004,08,12,02,01,18.60
2004,08,12,02,02,18.60
2004,08,12,02,03,18.60
2004,08,12,02,04,18.60
2004,08,12,02,05,18.50
2004,08,12,02,06,18.50
2004,08,12,02,07,18.50
2004,08,12,02,08,18.40
2004,08,12,02,09,18.40
2004,08,12,02,10,18.40
2004,08,12,02,11,18.40
2004,08,12,02,12,18.30
2004,08,12,02,13,18.30
2004,08,12,02,14,18.20
2004,08,12,02,15,18.20
2004,08,12,02,16,18.20
2004,08,12,02,17,18.20
2004,08,12,02,18,18.30
2004,08,12,02,19,18.30
2004,08,12,02,20,18.40
2004,08,12,02,21,18.40
2004,08,12,02,22,18.40
2004,08,12,02,23,18.30
2004,08,12,02,24,18.30
2004,08,12,02,25,18.30
2004,08,12,02,26,18.30
2004,08,12,02,27,18.30
2004,08,12,02,28,18.30
2004,08,12,02,29,18.30
2004,08,12,02,30,18.30
2004,08,12,02,31,18.20
2004,08,12,02,32,18.20
2004,08,12,02,33,18.20
2004,08,12,02,34,18.20
2004,08,12,02,35,18.20
2004,08,12,02,36,18.20
2004,08,12,02,37,18.20
2004,08,12,02,38,18.20
2004,08,12,02,39,18.10
2004,08,12,02,40,18.10
2004,08,12,02,41,18.00
2004,08,12,02,42,18.00
2004,08,12,02,43,17.90
2004,08,12,02,44,17.90
2004,08,12,02,45,17.90
2004,08,12,02,46,17.90
2004,08,12,02,47,17.90
2004,08,12,02,48,17.80
2004,08,12,02,49,17.80
2004,08,12,02,50,17.80
2004,08,12,02,51,17.70
2004,08,12,02,52,17.70
2004,08,12,02,53,17.60
2004,08,12,02,54,17.50
2004,08,12,02,55,17.50
2004,08,12,02,56,17.50
2004,08,12,02,57,17.40
2004,08,12,02,58,17.40
2004,08,12,02,59,17.40
2004,08,12,03,00,17.40
2004,08,12,03,01,17.40
2004,08,12,03,02,17.40
2004,08,12,03,03,17.40
2004,08,12,03,04,17.40
2004,08,12,03,05,17.40
2004,08,12,03,06,17.40
2004,08,12,03,07,17.40
2004,08,12,03,08,17.40
2004,08,12,03,09,17.40
2004,08,12,03,10,17.40
2004,08,12,03,11,17.40
2004,08,12,03,12,17.50
2004,08,12,03,13,17.50
2004,08,12,03,14,17.50
2004,08,12,03,15,17.50
2004,08,12,03,16,17.50
2004,08,12,03,17,17.50
2004,08,12,03,18,17.50
2004,08,12,03,19,17.50
2004,08,12,03,20,17.50
2004,08,12,03,21,17.60
2004,08,12,03,22,17.60
2004,08,12,03,23,17.60
2004,08,12,03,24,17.70
2004,08,12,03,25,17.70
2004,08,12,03,26,17.70
2004,08,12,03,27,17.70
2004,08,12,03,28,17.60
2004,08,12,03,29,17.50
2004,08,12,03,30,17.50
2004,08,12,03,31,17.50
2004,08,12,03,32,17.50
2004,08,12,03,33,17.50
2004,08,12,03,34,17.50
2004,08,12,03,35,17.50
2004,08,12,03,36,17.40
2004,08,12,03,37,17.30
2004,08,12,03,38,17.30
2004,08,12,03,39,17.30
2004,08,12,03,40,17.20
2004,08,12,03,41,17.20
2004,08,12,03,42,17.10
2004,08,12,03,43,17.00
2004,08,12,03,44,17.00
2004,08,12,03,45,16.90
2004,08,12,03,46,16.90
2004,08,12,03,47,16.90
2004,08,12,03,48,16.90
2004,08,12,03,49,16.90
2004,08,12,03,50,17.00
2004,08,12,03,51,17.00
2004,08,12,03,52,17.00
2004,08,12,03,53,17.10
2004,08,12,03,54,17.20
2004,08,12,03,55,17.20
2004,08,12,03,56,17.20
2004,08,12,03,57,17.30
2004,08,12,03,58,17.30
2004,08,12,03,59,17.30
2004,08,12,04,00,17.30
2004,08,12,04,01,17.30
2004,08,12,04,02,17.30
2004,08,12,04,03,17.30
2004,08,12,04,04,17.30
2004,08,12,04,05,17.30
2004,08,12,04,06,17.20
2004,08,12,04,07,17.10
2004,08,12,04,08,17.00
2004,08,12,04,09,17.00
2004,08,12,04,10,16.90
2004,08,12,04,11,16.90
2004,08,12,04,12,16.80
2004,08,12,04,13,16.80
2004,08,12,04,14,16.80
2004,08,12,04,15,16.80
2004,08,12,04,16,16.80
2004,08,12,04,17,16.80
2004,08,12,04,18,16.80
2004,08,12,04,19,16.80
2004,08,12,04,20,16.80
2004,08,12,04,21,16.70
2004,08,12,04,22,16.70
2004,08,12,04,23,16.70
2004,08,12,04,24,16.70
2004,08,12,04,25,16.70
2004,08,12,04,26,16.70
2004,08,12,04,27,16.70
2004,08,12,04,28,16.70
2004,08,12,04,29,16.70
2004,08,12,04,30,16.70
2004,08,12,04,31,16.70
2004,08,12,04,32,16.70
2004,08,12,04,33,16.70
2004,08,12,04,34,16.70
2004,08,12,04,35,16.70
2004,08,12,04,36,16.70
2004,08,12,04,37,16.70
2004,08,12,04,38,16.70
2004,08,12,04,39,16.70
2004,08,12,04,40,16.80
2004,08,12,04,41,16.80
2004,08,12,04,42,16.80
2004,08,12,04,43,16.70
2004,08,12,04,44,16.70
2004,08,12,04,45,16.70
2004,08,12,04,46,16.70
2004,08,12,04,47,16.70
2004,08,12,04,48,16.60
2004,08,12,04,49,16.60
2004,08,12,04,50,16.60
2004,08,12,04,51,16.60
2004,08,12,04,52,16.60
2004,08,12,04,53,16.70
2004,08,12,04,54,16.60
2004,08,12,04,55,16.60
2004,08,12,04,56,16.50
2004,08,12,04,57,16.40
2004,08,12,04,58,16.40
2004,08,12,04,59,16.40
2004,08,12,05,00,16.40
2004,08,12,05,01,16.40
2004,08,12,05,02,16.40
2004,08,12,05,03,16.40
2004,08,12,05,04,16.40
2004,08,12,05,05,16.50
2004,08,12,05,06,16.60
2004,08,12,05,07,16.60
2004,08,12,05,08,16.50
2004,08,12,05,09,16.40
2004,08,12,05,10,16.40
2004,08,12,05,11,16.40
2004,08,12,05,12,16.40
2004,08,12,05,13,16.40
2004,08,12,05,14,16.40
2004,08,12,05,15,16.40
2004,08,12,05,16,16.40
2004,08,12,05,17,16.40
2004,08,12,05,18,16.30
2004,08,12,05,19,16.30
2004,08,12,05,20,16.40
2004,08,12,05,21,16.30
2004,08,12,05,22,16.30
2004,08,12,05,23,16.20
2004,08,12,05,24,16.20
2004,08,12,05,25,16.10
2004,08,12,05,26,16.10
2004,08,12,05,27,16.10
2004,08,12,05,28,16.10
2004,08,12,05,29,16.10
2004,08,12,05,30,16.10
2004,08,12,05,31,16.00
2004,08,12,05,32,15.90
2004,08,12,05,33,15.80
2004,08,12,05,34,15.70
2004,08,12,05,35,15.60
2004,08,12,05,36,15.50
2004,08,12,05,37,15.40
2004,08,12,05,38,15.30
2004,08,12,05,39,15.30
2004,08,12,05,40,15.20
2004,08,12,05,41,15.10
2004,08,12,05,42,15.10
2004,08,12,05,43,15.00
2004,08,12,05,44,15.00
2004,08,12,05,45,15.00
2004,08,12,05,46,14.90
2004,08,12,05,47,14.90
2004,08,12,05,48,14.90
2004,08,12,05,49,14.80
2004,08,12,05,50,14.80
2004,08,12,05,51,14.80
2004,08,12,05,52,14.80
2004,08,12,05,53,14.80
2004,08,12,05,54,14.70
2004,08,12,05,55,14.70
2004,08,12,05,56,14.70
2004,08,12,05,57,14.70
2004,08,12,05,58,14.70
2004,08,12,05,59,14.70
2004,08,12,06,00,14.80
2004,08,12,06,01,14.80
2004,08,12,06,02,14.80
2004,08,12,06,03,14.80
2004,08,12,06,04,14.80
2004,08,12,06,05,14.80
2004,08,12,06,06,14.80
2004,08,12,06,07,14.80
2004,08,12,06,08,14.80
2004,08,12,06,09,14.80
2004,08,12,06,10,14.80
2004,08,12,06,11,14.80
2004,08,12,06,12,14.80
2004,08,12,06,13,14.80
2004,08,12,06,14,14.80
2004,08,12,06,15,14.90
2004,08,12,06,16,14.90
2004,08,12,06,17,14.90
2004,08,12,06,18,14.90
2004,08,12,06,19,15.00
2004,08,12,06,20,15.10
2004,08,12,06,21,15.10
2004,08,12,06,22,15.10
2004,08,12,06,23,15.10
2004,08,12,06,24,15.20
2004,08,12,06,25,15.20
2004,08,12,06,26,15.20
2004,08,12,06,27,15.30
2004,08,12,06,28,15.30
2004,08,12,06,29,15.40
2004,08,12,06,30,15.50
2004,08,12,06,31,15.60
2004,08,12,06,32,15.70
2004,08,12,06,33,15.80
2004,08,12,06,34,15.80
2004,08,12,06,35,15.90
2004,08,12,06,36,15.90
2004,08,12,06,37,15.90
2004,08,12,06,38,16.00
2004,08,12,06,39,16.10
2004,08,12,06,40,16.10
2004,08,12,06,41,16.20
2004,08,12,06,42,16.30
2004,08,12,06,43,16.40
2004,08,12,06,44,16.40
2004,08,12,06,45,16.40
2004,08,12,06,46,16.40
2004,08,12,06,47,16.40
2004,08,12,06,48,16.50
2004,08,12,06,49,16.60
2004,08,12,06,50,16.70
2004,08,12,06,51,16.70
2004,08,12,06,52,16.70
2004,08,12,06,53,16.80
2004,08,12,06,54,16.80
2004,08,12,06,55,16.70
2004,08,12,06,56,16.70
2004,08,12,06,57,16.60
2004,08,12,06,58,16.50
2004,08,12,06,59,16.60
2004,08,12,07,00,16.70
2004,08,12,07,01,16.70
2004,08,12,07,02,16.70
2004,08,12,07,03,16.70
2004,08,12,07,04,16.70
2004,08,12,07,05,16.90
2004,08,12,07,06,17.00
2004,08,12,07,07,17.10
2004,08,12,07,08,17.20
2004,08,12,07,09,17.30
2004,08,12,07,10,17.30
2004,08,12,07,11,17.40
2004,08,12,07,12,17.50
2004,08,12,07,13,17.60
2004,08,12,07,14,17.70
2004,08,12,07,15,17.80
2004,08,12,07,16,17.90
2004,08,12,07,17,18.00
2004,08,12,07,18,18.20
2004,08,12,07,19,18.30
2004,08,12,07,20,18.50
2004,08,12,07,21,18.60
2004,08,12,07,22,18.60
2004,08,12,07,23,18.70
2004,08,12,07,24,18.80
2004,08,12,07,25,18.90
2004,08,12,07,26,18.90
2004,08,12,07,27,19.10
2004,08,12,07,28,19.20
2004,08,12,07,29,19.40
2004,08,12,07,30,19.50
2004,08,12,07,31,19.60
2004,08,12,07,32,19.70
2004,08,12,07,33,19.80
2004,08,12,07,34,19.70
2004,08,12,07,35,19.70
2004,08,12,07,36,19.60
2004,08,12,07,37,19.50
2004,08,12,07,38,19.40
2004,08,12,07,39,19.30
2004,08,12,07,40,19.40
2004,08,12,07,41,19.40
2004,08,12,07,42,19.30
2004,08,12,07,43,19.20
2004,08,12,07,44,19.20
2004,08,12,07,45,19.30
2004,08,12,07,46,19.40
2004,08,12,07,47,19.60
2004,08,12,07,48,19.70
2004,08,12,07,49,19.80
2004,08,12,07,50,19.90
2004,08,12,07,51,20.00
2004,08,12,07,52,20.10
2004,08,12,07,53,20.20
2004,08,12,07,54,20.20
2004,08,12,07,55,20.20
2004,08,12,07,56,20.20
2004,08,12,07,57,20.40
2004,08,12,07,58,20.50
2004,08,12,07,59,20.50
2004,08,12,08,00,20.50
2004,08,12,08,01,20.60
2004,08,12,08,02,20.60
2004,08,12,08,03,20.60
2004,08,12,08,04,20.60
2004,08,12,08,05,20.60
2004,08,12,08,06,20.50
2004,08,12,08,07,20.40
2004,08,12,08,08,20.40
2004,08,12,08,09,20.40
2004,08,12,08,10,20.40
2004,08,12,08,11,20.40
2004,08,12,08,12,20.50
2004,08,12,08,13,20.50
2004,08,12,08,14,20.70
2004,08,12,08,15,20.90
2004,08,12,08,16,21.10
2004,08,12,08,17,21.20
2004,08,12,08,18,21.20
2004,08,12,08,19,21.20
2004,08,12,08,20,21.10
2004,08,12,08,21,21.20
2004,08,12,08,22,21.20
2004,08,12,08,23,21.30
2004,08,12,08,24,21.40
2004,08,12,08,25,21.40
2004,08,12,08,26,21.50
2004,08,12,08,27,21.60
2004,08,12,08,28,21.70
2004,08,12,08,29,22.00
2004,08,12,08,30,22.10
2004,08,12,08,31,22.20
2004,08,12,08,32,22.40
2004,08,12,08,33,22.40
2004,08,12,08,34,22.50
2004,08,12,08,35,22.40
2004,08,12,08,36,22.30
2004,08,12,08,37,22.20
2004,08,12,08,38,22.00
2004,08,12,08,39,22.00
2004,08,12,08,40,22.00
2004,08,12,08,41,21.90
2004,08,12,08,42,21.80
2004,08,12,08,43,21.80
2004,08,12,08,44,21.80
2004,08,12,08,45,21.70
2004,08,12,08,46,21.60
2004,08,12,08,47,21.50
2004,08,12,08,48,21.40
2004,08,12,08,49,21.30
2004,08,12,08,50,21.20
2004,08,12,08,51,21.20
2004,08,12,08,52,21.30
2004,08,12,08,53,21.30
2004,08,12,08,54,21.30
2004,08,12,08,55,21.20
2004,08,12,08,56,21.10
2004,08,12,08,57,21.10
2004,08,12,08,58,21.20
2004,08,12,08,59,21.20
2004,08,12,09,00,21.20
2004,08,12,09,01,21.20
2004,08,12,09,02,21.30
2004,08,12,09,03,21.30
2004,08,12,09,04,21.30
2004,08,12,09,05,21.20
2004,08,12,09,06,21.30
2004,08,12,09,07,21.30
2004,08,12,09,08,21.50
2004,08,12,09,09,21.60
2004,08,12,09,10,21.40
2004,08,12,09,11,21.50
2004,08,12,09,12,21.40
2004,08,12,09,13,21.20
2004,08,12,09,14,21.00
2004,08,12,09,15,21.00
2004,08,12,09,16,20.90
2004,08,12,09,17,21.00
2004,08,12,09,18,20.90
2004,08,12,09,19,20.90
2004,08,12,09,20,21.00
2004,08,12,09,21,21.00
2004,08,12,09,22,21.00
2004,08,12,09,23,21.10
2004,08,12,09,24,21.30
2004,08,12,09,25,21.50
2004,08,12,09,26,21.70
2004,08,12,09,27,21.70
2004,08,12,09,28,21.60
2004,08,12,09,29,21.60
2004,08,12,09,30,21.70
2004,08,12,09,31,21.80
2004,08,12,09,32,21.80
2004,08,12,09,33,21.80
2004,08,12,09,34,21.80
2004,08,12,09,35,21.80
2004,08,12,09,36,21.90
2004,08,12,09,37,21.90
2004,08,12,09,38,22.00
2004,08,12,09,39,21.90
2004,08,12,09,40,21.70
2004,08,12,09,41,21.50
2004,08,12,09,42,21.40
2004,08,12,09,43,21.30
2004,08,12,09,44,21.50
2004,08,12,09,45,21.60
2004,08,12,09,46,21.50
2004,08,12,09,47,21.40
2004,08,12,09,48,21.30
2004,08,12,09,49,21.50
2004,08,12,09,50,21.40
2004,08,12,09,51,21.20
2004,08,12,09,52,21.10
2004,08,12,09,53,20.90
2004,08,12,09,54,20.80
2004,08,12,09,55,20.80
2004,08,12,09,56,20.70
2004,08,12,09,57,20.60
2004,08,12,09,58,20.60
2004,08,12,09,59,20.50
2004,08,12,10,00,20.50
2004,08,12,10,01,20.60
2004,08,12,10,02,20.60
2004,08,12,10,03,20.50
2004,08,12,10,04,20.30
2004,08,12,10,05,20.20
2004,08,12,10,06,20.20
2004,08,12,10,07,20.40
2004,08,12,10,08,20.50
2004,08,12,10,09,20.50
2004,08,12,10,10,20.50
2004,08,12,10,11,20.50
2004,08,12,10,12,20.60
2004,08,12,10,13,20.70
2004,08,12,10,14,20.70
2004,08,12,10,15,20.80
2004,08,12,10,16,20.90
2004,08,12,10,17,20.90
2004,08,12,10,18,20.80
2004,08,12,10,19,20.80
2004,08,12,10,20,20.80
2004,08,12,10,21,20.70
2004,08,12,10,22,20.70
2004,08,12,10,23,20.80
2004,08,12,10,24,20.80
2004,08,12,10,25,20.80
2004,08,12,10,26,20.90
2004,08,12,10,27,21.00
2004,08,12,10,28,21.00
2004,08,12,10,29,21.00
2004,08,12,10,30,21.20
2004,08,12,10,31,21.20
2004,08,12,10,32,21.30
2004,08,12,10,33,21.30
2004,08,12,10,34,21.30
2004,08,12,10,35,21.30
2004,08,12,10,36,21.30
2004,08,12,10,37,21.30
2004,08,12,10,38,21.30
2004,08,12,10,39,21.30
2004,08,12,10,40,21.20
2004,08,12,10,41,21.10
2004,08,12,10,42,21.10
2004,08,12,10,43,21.10
2004,08,12,10,44,21.20
2004,08,12,10,45,21.30
2004,08,12,10,46,21.40
2004,08,12,10,47,21.40
2004,08,12,10,48,21.40
2004,08,12,10,49,21.30
2004,08,12,10,50,21.30
2004,08,12,10,51,21.30
2004,08,12,10,52,21.30
2004,08,12,10,53,21.30
2004,08,12,10,54,21.30
2004,08,12,10,55,21.30
2004,08,12,10,56,21.30
2004,08,12,10,57,21.30
2004,08,12,10,58,21.30
2004,08,12,10,59,21.30
2004,08,12,11,00,21.30
2004,08,12,11,01,21.30
2004,08,12,11,02,21.40
2004,08,12,11,03,21.60
2004,08,12,11,04,21.60
2004,08,12,11,05,21.80
2004,08,12,11,06,21.70
2004,08,12,11,07,21.60
2004,08,12,11,12,21.60
2004,08,12,11,13,21.60
2004,08,12,11,14,21.60
2004,08,12,11,15,21.70
2004,08,12,11,16,21.60
2004,08,12,11,21,21.60
2004,08,12,11,22,21.70
2004,08,12,11,23,21.70
2004,08,12,11,24,21.90
2004,08,12,11,25,21.80
2004,08,12,11,26,21.80
2004,08,12,11,27,21.90
2004,08,12,11,28,21.90
2004,08,12,11,29,22.00
2004,08,12,11,30,22.10
2004,08,12,11,31,22.20
2004,08,12,11,32,22.30
2004,08,12,11,33,22.30
2004,08,12,11,34,22.10
2004,08,12,11,35,22.00
2004,08,12,11,36,22.00
2004,08,12,11,37,21.90
2004,08,12,11,38,21.90
2004,08,12,11,39,21.80
2004,08,12,11,40,21.90
2004,08,12,11,41,21.90
2004,08,12,11,42,21.90
2004,08,12,11,43,22.00
2004,08,12,11,44,22.00
2004,08,12,11,45,22.20
2004,08,12,11,46,22.30
2004,08,12,11,47,22.40
2004,08,12,11,48,22.30
2004,08,12,11,49,22.20
2004,08,12,11,50,22.30
2004,08,12,11,51,22.30
2004,08,12,11,52,22.50
2004,08,12,11,53,22.80
2004,08,12,11,54,23.00
2004,08,12,11,55,23.00
2004,08,12,11,56,22.90
2004,08,12,11,57,22.80
2004,08,12,11,58,22.80
2004,08,12,11,59,22.80
2004,08,12,12,00,22.80
2004,08,12,12,01,22.80
2004,08,12,12,02,22.90
2004,08,12,12,03,22.80
2004,08,12,12,04,22.70
2004,08,12,12,05,22.90
2004,08,12,12,06,22.90
2004,08,12,12,07,22.90
2004,08,12,12,08,23.00
2004,08,12,12,09,23.00
2004,08,12,12,10,22.90
2004,08,12,12,11,22.70
2004,08,12,12,12,22.60
2004,08,12,12,13,22.60
2004,08,12,12,14,22.60
2004,08,12,12,15,22.50
2004,08,12,12,16,22.40
2004,08,12,12,17,22.60
2004,08,12,12,18,22.70
2004,08,12,12,19,22.60
2004,08,12,12,20,22.60
2004,08,12,12,21,22.60
2004,08,12,12,22,22.70
2004,08,12,12,23,22.80
2004,08,12,12,24,22.80
2004,08,12,12,25,22.80
2004,08,12,12,26,22.80
2004,08,12,12,27,22.90
2004,08,12,12,28,22.90
2004,08,12,12,29,23.00
2004,08,12,12,30,23.10
2004,08,12,12,31,23.20
2004,08,12,12,32,23.20
2004,08,12,12,33,23.30
2004,08,12,12,34,23.30
2004,08,12,12,35,23.30
2004,08,12,12,36,23.30
2004,08,12,12,37,23.60
2004,08,12,12,38,24.10
2004,08,12,12,39,24.40
2004,08,12,12,40,24.50
2004,08,12,12,41,24.50
2004,08,12,12,42,24.50
2004,08,12,12,43,24.50
2004,08,12,12,44,24.30
2004,08,12,12,45,24.20
2004,08,12,12,46,24.40
2004,08,12,12,47,24.60
2004,08,12,12,48,24.80
2004,08,12,12,49,25.10
2004,08,12,12,50,25.30
2004,08,12,12,51,25.40
2004,08,12,12,52,25.40
2004,08,12,12,53,25.30
2004,08,12,12,54,25.30
2004,08,12,12,55,25.30
2004,08,12,12,56,25.00
2004,08,12,12,57,25.00
2004,08,12,12,58,25.10
2004,08,12,12,59,25.30
2004,08,12,13,00,25.40
2004,08,12,13,01,25.60
2004,08,12,13,02,26.00
2004,08,12,13,03,26.10
2004,08,12,13,04,26.50
2004,08,12,13,05,26.50
2004,08,12,13,06,26.30
2004,08,12,13,07,26.00
2004,08,12,13,08,25.90
2004,08,12,13,09,26.20
2004,08,12,13,10,26.30
2004,08,12,13,11,26.40
2004,08,12,13,12,26.50
2004,08,12,13,13,26.60
2004,08,12,13,14,26.50
2004,08,12,13,15,26.30
2004,08,12,13,16,26.00
2004,08,12,13,17,26.20
2004,08,12,13,18,26.30
2004,08,12,13,19,26.40
2004,08,12,13,20,26.50
2004,08,12,13,21,26.50
2004,08,12,13,22,26.70
2004,08,12,13,23,26.80
2004,08,12,13,24,27.00
2004,08,12,13,25,27.00
2004,08,12,13,26,26.90
2004,08,12,13,27,26.60
2004,08,12,13,28,26.60
2004,08,12,13,29,26.60
2004,08,12,13,30,26.70
2004,08,12,13,31,26.70
2004,08,12,13,32,26.80
2004,08,12,13,33,26.40
2004,08,12,13,34,25.90
2004,08,12,13,35,25.60
2004,08,12,13,36,25.20
2004,08,12,13,37,24.90
2004,08,12,13,38,24.80
2004,08,12,13,39,24.70
2004,08,12,13,40,24.70
2004,08,12,13,41,24.90
2004,08,12,13,42,25.00
2004,08,12,13,43,25.20
2004,08,12,13,44,25.50
2004,08,12,13,45,25.80
2004,08,12,13,46,25.90
2004,08,12,13,47,26.00
2004,08,12,13,48,26.00
2004,08,12,13,49,26.30
2004,08,12,13,50,26.40
2004,08,12,13,51,26.30
2004,08,12,13,52,26.40
2004,08,12,13,53,26.40
2004,08,12,13,54,26.50
2004,08,12,13,55,26.40
2004,08,12,13,56,26.40
2004,08,12,13,57,26.40
2004,08,12,13,58,26.50
2004,08,12,13,59,26.60
2004,08,12,14,00,26.60
2004,08,12,14,01,26.70
2004,08,12,14,02,27.00
2004,08,12,14,03,27.10
2004,08,12,14,04,27.20
2004,08,12,14,05,27.30
2004,08,12,14,06,27.30
2004,08,12,14,07,27.40
2004,08,12,14,08,27.60
2004,08,12,14,09,27.80
2004,08,12,14,10,28.00
2004,08,12,14,11,28.10
2004,08,12,14,12,28.20
2004,08,12,14,13,28.10
2004,08,12,14,14,28.00
2004,08,12,14,15,27.60
2004,08,12,14,16,27.40
2004,08,12,14,17,27.10
2004,08,12,14,18,27.00
2004,08,12,14,19,26.80
2004,08,12,14,20,26.40
2004,08,12,14,21,26.40
2004,08,12,14,22,26.10
2004,08,12,14,23,25.90
2004,08,12,14,24,25.80
2004,08,12,14,25,25.70
2004,08,12,14,26,25.90
2004,08,12,14,27,26.00
2004,08,12,14,28,26.00
2004,08,12,14,29,25.90
2004,08,12,14,30,26.00
2004,08,12,14,31,26.10
2004,08,12,14,32,26.20
2004,08,12,14,33,26.00
2004,08,12,14,34,26.10
2004,08,12,14,35,26.20
2004,08,12,14,36,26.20
2004,08,12,14,37,26.20
2004,08,12,14,38,26.10
2004,08,12,14,39,26.10
2004,08,12,14,40,26.30
2004,08,12,14,41,26.30
2004,08,12,14,42,26.10
2004,08,12,14,43,25.90
2004,08,12,14,44,25.80
2004,08,12,14,45,25.70
2004,08,12,14,46,25.50
2004,08,12,14,47,25.40
2004,08,12,14,48,25.50
2004,08,12,14,49,25.50
2004,08,12,14,50,25.40
2004,08,12,14,51,25.50
2004,08,12,14,52,25.50
2004,08,12,14,53,25.50
2004,08,12,14,54,25.50
2004,08,12,14,55,25.60
2004,08,12,14,56,25.80
2004,08,12,14,57,25.90
2004,08,12,14,58,26.00
2004,08,12,14,59,26.10
2004,08,12,15,00,26.20
2004,08,12,15,01,26.30
2004,08,12,15,02,26.30
2004,08,12,15,03,26.40
2004,08,12,15,04,26.50
2004,08,12,15,05,26.60
2004,08,12,15,06,26.60
2004,08,12,15,07,26.70
2004,08,12,15,08,26.80
2004,08,12,15,09,27.10
2004,08,12,15,10,27.20
2004,08,12,15,11,27.40
2004,08,12,15,12,27.30
2004,08,12,15,13,27.50
2004,08,12,15,14,27.70
2004,08,12,15,15,27.90
2004,08,12,15,16,27.90
2004,08,12,15,17,28.00
2004,08,12,15,18,28.20
2004,08,12,15,19,28.20
2004,08,12,15,20,28.40
2004,08,12,15,21,28.40
2004,08,12,15,22,28.40
2004,08,12,15,23,28.50
2004,08,12,15,24,28.60
2004,08,12,15,25,28.80
2004,08,12,15,26,28.70
2004,08,12,15,27,28.80
2004,08,12,15,28,28.80
2004,08,12,15,29,28.90
2004,08,12,15,30,28.90
2004,08,12,15,31,28.90
2004,08,12,15,32,28.70
2004,08,12,15,33,28.70
2004,08,12,15,34,28.60
2004,08,12,15,35,28.60
2004,08,12,15,36,28.60
2004,08,12,15,37,28.60
2004,08,12,15,38,28.60
2004,08,12,15,39,28.80
2004,08,12,15,40,28.80
2004,08,12,15,41,28.90
2004,08,12,15,42,28.80
2004,08,12,15,43,28.80
2004,08,12,15,44,28.60
2004,08,12,15,45,28.70
2004,08,12,15,46,28.80
2004,08,12,15,47,28.80
2004,08,12,15,48,28.80
2004,08,12,15,49,28.80
2004,08,12,15,50,28.70
2004,08,12,15,51,28.50
2004,08,12,15,52,28.40
2004,08,12,15,53,28.40
2004,08,12,15,54,28.50
2004,08,12,15,55,28.60
2004,08,12,15,56,28.50
2004,08,12,15,57,28.70
2004,08,12,15,58,28.80
2004,08,12,15,59,28.60
2004,08,12,16,00,28.50
2004,08,12,16,01,28.40
2004,08,12,16,02,28.60
2004,08,12,16,03,28.60
2004,08,12,16,04,28.80
2004,08,12,16,05,28.90
2004,08,12,16,06,28.80
2004,08,12,16,07,28.60
2004,08,12,16,08,28.40
2004,08,12,16,09,28.60
2004,08,12,16,10,28.80
2004,08,12,16,11,28.90
2004,08,12,16,12,29.10
2004,08,12,16,13,29.30
2004,08,12,16,14,29.30
2004,08,12,16,15,29.30
2004,08,12,16,16,29.50
2004,08,12,16,17,29.50
2004,08,12,16,18,29.70
2004,08,12,16,19,29.70
2004,08,12,16,20,29.70
2004,08,12,16,21,29.80
2004,08,12,16,22,29.90
2004,08,12,16,23,29.90
2004,08,12,16,24,29.70
2004,08,12,16,25,29.40
2004,08,12,16,26,29.10
2004,08,12,16,27,29.00
2004,08,12,16,28,28.90
2004,08,12,16,29,29.00
2004,08,12,16,30,29.10
2004,08,12,16,31,29.00
2004,08,12,16,32,28.90
2004,08,12,16,33,28.80
2004,08,12,16,34,28.70
2004,08,12,16,35,28.70
2004,08,12,16,36,28.70
2004,08,12,16,37,28.40
2004,08,12,16,38,28.40
2004,08,12,16,39,28.40
2004,08,12,16,40,28.60
2004,08,12,16,41,28.70
2004,08,12,16,42,28.90
2004,08,12,16,43,29.00
2004,08,12,16,44,29.00
2004,08,12,16,45,28.90
2004,08,12,16,46,28.90
2004,08,12,16,47,28.90
2004,08,12,16,48,28.80
2004,08,12,16,49,28.50
2004,08,12,16,50,28.40
2004,08,12,16,51,28.30
2004,08,12,16,52,28.40
2004,08,12,16,53,28.50
2004,08,12,16,54,28.60
2004,08,12,16,55,28.80
2004,08,12,16,56,28.90
2004,08,12,16,57,29.00
2004,08,12,16,58,29.00
2004,08,12,16,59,29.00
2004,08,12,17,00,29.00
2004,08,12,17,01,29.10
2004,08,12,17,02,29.10
2004,08,12,17,03,29.00
2004,08,12,17,04,28.70
2004,08,12,17,05,28.70
2004,08,12,17,06,28.60
2004,08,12,17,07,28.60
2004,08,12,17,08,28.80
2004,08,12,17,09,28.90
2004,08,12,17,10,29.10
2004,08,12,17,11,29.20
2004,08,12,17,12,29.40
2004,08,12,17,13,29.40
2004,08,12,17,14,29.50
2004,08,12,17,15,29.50
2004,08,12,17,16,29.50
2004,08,12,17,17,29.40
2004,08,12,17,18,29.30
2004,08,12,17,19,29.20
2004,08,12,17,20,29.10
2004,08,12,17,21,29.00
2004,08,12,17,22,28.90
2004,08,12,17,23,28.80
2004,08,12,17,24,28.70
2004,08,12,17,25,28.60
2004,08,12,17,26,28.70
2004,08,12,17,27,28.50